FW3958 Weather Reports


Display with metric or nautical units.
time (UTC)temp
F
wind
direction
speed
MPH
gust
MPH
rain 1hr
in
rain 24hr
in
rain mn
in
humidity
%
barometer
mb
20260905190055 66 253 0.0 3.0 0.00 0.04 0.01 81 1019.0
20260905184546 65 170 0.0 0.0 0.00 0.04 0.01 82 1019.0
20260905183042 63 334 0.0 0.0 0.00 0.04 0.01 84 1019.0
20260905181543 63 334 0.0 0.0 0.00 0.04 0.01 84 1019.1
20260905180039 63 297 0.0 0.0 0.00 0.04 0.01 84 1019.1
20260905174541 64 290 0.0 0.0 0.00 0.04 0.01 86 1019.2
20260905173034 62 120 0.0 0.0 0.00 0.04 0.01 90 1019.3
20260905171542 61 31 1.0 3.0 0.00 0.04 0.01 96 1019.2
20260905170029 60 80 0.0 0.0 0.00 0.04 0.01 98 1019.0
20260905164524 58 80 0.0 0.0 0.00 0.04 0.01 100 1019.0
20260905163022 58 85 0.0 1.0 0.00 0.04 0.01 100 1019.0
20260905161518 56 60 0.0 1.0 0.01 0.04 0.01 100 1018.9
20260905160019 54 95 0.0 0.0 0.01 0.04 0.01 100 1018.9
20260905154512 53 95 0.0 0.0 0.01 0.04 0.01 100 1018.9
20260905153009 52 95 0.0 0.0 0.01 0.04 0.01 100 1019.0
20260905151616 51 95 0.0 0.0 0.00 0.03 0.00 100 1019.0
20260905150008 50 95 0.0 0.0 0.00 0.03 0.00 100 1019.0
20260905144516 49 95 0.0 0.0 0.00 0.03 0.00 100 1018.9
20260905143007 49 90 0.0 0.0 0.00 0.03 0.00 100 1018.9
20260905141505 49 90 0.0 0.0 0.00 0.03 0.00 100 1018.8
20260905140004 48 90 0.0 0.0 0.00 0.03 0.00 100 1018.8
20260905134502 48 90 0.0 0.0 0.00 0.03 0.00 100 1018.7
20260905133001 49 90 0.0 0.0 0.00 0.03 0.00 100 1018.5
20260905131617 49 90 0.0 0.0 0.00 0.03 0.00 100 1018.4
20260905130100 50 90 0.0 0.0 0.00 0.03 0.00 100 1018.3
20260905124600 50 90 0.0 0.0 0.00 0.03 0.00 100 1018.3
20260905123100 50 90 0.0 0.0 0.00 0.03 0.00 100 1018.3
20260905121558 50 90 0.0 2.0 0.00 0.03 0.00 100 1018.5
20260905120056 49 101 0.0 0.0 0.00 0.03 0.00 100 1018.3
20260905114556 49 101 0.0 0.0 0.00 0.03 0.00 100 1018.4
20260905113054 49 101 0.0 0.0 0.00 0.03 0.00 100 1018.3
20260905111656 49 101 0.0 0.0 0.00 0.03 0.00 100 1018.2
20260905110053 49 101 0.0 0.0 0.00 0.03 0.00 100 1018.4
20260905104556 49 101 0.0 0.0 0.00 0.03 0.00 100 1018.5
20260905103053 49 101 0.0 0.0 0.00 0.03 0.00 100 1018.3
20260905101550 48 101 0.0 0.0 0.00 0.03 0.00 100 1018.3
20260905100105 48 101 0.0 0.0 0.00 0.03 0.00 100 1018.4
20260905094549 48 101 0.0 0.0 0.00 0.03 0.00 100 1018.3
20260905093047 48 100 0.0 0.0 0.00 0.03 0.00 100 1018.5
20260905091546 48 100 0.0 0.0 0.00 0.03 0.00 100 1018.3
20260905090103 48 101 0.0 0.0 0.00 0.03 0.00 100 1018.3
20260905084543 48 101 0.0 0.0 0.00 0.03 0.00 100 1018.1
20260905083048 49 101 0.0 0.0 0.00 0.03 0.00 100 1018.1
20260905081547 49 101 0.0 0.0 0.00 0.03 0.00 100 1018.1
20260905080045 49 101 0.0 0.0 0.00 0.03 0.00 100 1017.9
20260905074535 50 101 0.0 0.0 0.00 0.03 0.00 100 1017.8
20260905073037 51 101 0.0 0.0 0.00 0.03 0.00 100 1017.6
20260905071530 51 101 0.0 0.0 0.00 0.03 0.00 100 1017.5
20260905070031 52 101 0.0 0.0 0.00 0.03 0.03 100 1017.5
20260905064526 53 101 0.0 0.0 0.00 0.03 0.03 99 1017.4
20260905063026 54 101 1.0 4.0 0.00 0.03 0.03 100 1017.2
20260905061525 54 110 2.0 9.0 0.00 0.03 0.03 100 1017.2
20260905060032 53 104 0.0 2.0 0.00 0.03 0.03 100 1017.2
20260905054535 54 90 0.0 4.0 0.00 0.03 0.03 100 1017.2
20260905053023 54 103 1.0 4.0 0.00 0.03 0.03 100 1017.3
20260905051528 53 62 0.0 0.0 0.00 0.03 0.03 100 1017.2
20260905050021 54 62 0.0 3.0 0.00 0.03 0.03 100 1017.1
20260905044528 54 74 0.0 1.0 0.00 0.03 0.03 100 1017.1
20260905043020 55 74 0.0 5.0 0.00 0.03 0.03 100 1017.1
20260905041520 54 118 0.0 0.0 0.00 0.03 0.03 100 1017.1
20260905040018 55 118 0.0 0.0 0.00 0.03 0.03 100 1017.1
20260905034518 55 118 0.0 1.0 0.00 0.03 0.03 100 1017.1
20260905033116 55 118 1.0 4.0 0.00 0.03 0.03 100 1016.9
20260905031515 55 149 0.0 0.0 0.00 0.03 0.03 100 1016.9
20260905030015 56 150 0.0 0.0 0.00 0.03 0.03 100 1016.7
20260905024515 57 150 0.0 0.0 0.00 0.03 0.03 99 1016.4
20260905023019 58 143 0.0 0.0 0.00 0.03 0.03 99 1016.4
20260905021512 59 130 0.0 0.0 0.00 0.03 0.03 99 1016.5
20260905020012 60 130 0.0 0.0 0.00 0.03 0.03 99 1016.7
20260905014511 60 129 0.0 0.0 0.00 0.03 0.03 99 1016.5
20260905013012 60 129 0.0 0.0 0.00 0.03 0.03 99 1016.5
20260905011514 60 129 0.0 0.0 0.01 0.03 0.03 99 1016.2
20260905010008 61 129 0.0 0.0 0.02 0.04 0.03 99 1016.2
20260905004506 61 129 0.0 0.0 0.03 0.04 0.03 98 1016.0
20260905003010 61 129 0.0 0.0 0.03 0.04 0.03 97 1015.9
20260905001510 61 85 0.0 2.0 0.02 0.03 0.02 94 1016.0
20260905000005 62 174 0.0 1.0 0.01 0.14 0.01 90 1015.9
20260904234503 63 172 0.0 2.0 0.00 0.13 0.00 90 1015.6
20260904233002 64 185 0.0 6.0 0.00 0.13 0.00 89 1015.5
20260904231501 65 219 1.0 4.0 0.00 0.13 0.00 88 1015.3
20260904230110 66 227 0.0 4.0 0.00 0.13 0.00 84 1015.2
20260904224559 66 151 0.0 0.0 0.00 0.13 0.00 80 1015.0
20260904223104 67 45 0.0 0.0 0.00 0.13 0.00 76 1014.9
20260904221600 66 4 0.0 4.0 0.00 0.13 0.00 77 1014.9
20260904220116 67 5 2.0 11.0 0.00 0.13 0.00 75 1014.7
20260904214553 67 5 0.0 4.0 0.00 0.13 0.00 78 1014.6
20260904213052 67 70 0.0 7.0 0.00 0.13 0.00 77 1014.5
20260904211551 66 41 0.0 3.0 0.00 0.13 0.00 79 1014.6
20260904210050 65 27 1.0 8.0 0.00 0.13 0.00 81 1014.6
20260904204551 66 50 0.0 3.0 0.00 0.13 0.00 78 1014.6
20260904203048 67 18 0.0 5.0 0.00 0.13 0.00 76 1014.7
20260904201553 67 78 0.0 9.0 0.00 0.13 0.00 73 1014.5
20260904200054 67 19 2.0 8.0 0.00 0.14 0.00 73 1014.5
20260904194548 67 26 1.0 6.0 0.00 0.14 0.00 78 1014.4
20260904193041 66 132 3.0 9.0 0.00 0.14 0.00 76 1014.6
20260904191539 65 111 0.0 10.0 0.00 0.14 0.00 77 1014.7